Events

Displaying 901 - 1000 of 8536

Download data entry template

Text Pg Order within Page Date Location Chronological Order Creation datesort ascending Updated date
The Mansion 375 2 1946-03-21 to 1946-06-21 Judge Stevens'|Gavin Stevens' Office in The Mansion (Location) 641.00 view Sun, 2018-07-01 07:32 Wed, 2021-11-03 14:17
The Mansion 375 1 1946-03-21 to 1946-06-21 Meadowfill's Place in The Mansion (Location) 640.00 view Sun, 2018-07-01 07:17 Wed, 2021-11-03 14:09
The Mansion 456 1 1946-10-01 De Spain Mansion in The Mansion (Location) 764.00 view Sun, 2018-07-01 02:15 Fri, 2021-11-05 10:57
The Mansion 454 2 1946-10-01 De Spain Mansion in The Mansion (Location) 763.00 view Sun, 2018-07-01 02:09 Fri, 2021-11-05 10:52
The Mansion 454 1 1937-08-24 to 1940-08-30 Parchman Penitentiary in The Mansion (Location) 442.00 view Sun, 2018-07-01 02:06 Fri, 2021-11-05 10:48
The Mansion 453 1 1946-10-01 De Spain Mansion in The Mansion (Location) 762.00 view Sun, 2018-07-01 02:02 Fri, 2021-11-05 10:46
The Mansion 452 2 1946-10-01 De Spain Mansion in The Mansion (Location) 761.00 view Sun, 2018-07-01 01:56 Fri, 2021-11-05 10:44
The Mansion 452 1 1946-10-02 to 1946-10-03 De Spain Mansion in The Mansion (Location) 769.00 view Sun, 2018-07-01 01:49 Fri, 2021-11-05 10:43
The Mansion 451 4 1946-10-01 De Spain Mansion in The Mansion (Location) 760.00 view Sun, 2018-07-01 01:45 Fri, 2021-11-05 10:41
The Mansion 451 3 1946-10-01 Negro Hollow|Freedman Town in The Mansion (Location) 757.10 view Sun, 2018-07-01 01:39 Fri, 2021-11-05 10:38
The Mansion 451 2 1946-10-01 De Spain Mansion in The Mansion (Location) 758.00 view Sun, 2018-07-01 01:36 Fri, 2021-11-05 10:36
The Mansion 451 1 1946-09-29 to 1946-10-02 De Spain Mansion in The Mansion (Location) 740.00 view Sun, 2018-07-01 01:31 Fri, 2021-11-05 10:34
The Mansion 450 3 1946-09-26 to 1946-09-28 County Jail in The Mansion (Location) 705.00 view Sun, 2018-07-01 01:27 Fri, 2021-11-05 10:31
The Mansion 450 2 1946-09-26 to 1946-10-02 County Jail in The Mansion (Location) 704.00 view Sat, 2018-06-30 23:52 Fri, 2021-11-05 10:23
The Mansion 450 1 1946-09-26 to 1946-10-02 De Spain Mansion in The Mansion (Location) 703.00 view Sat, 2018-06-30 23:39 Fri, 2021-11-05 10:20
The Mansion 449 2 1946-09-26 County Jail in The Mansion (Location) 702.00 view Sat, 2018-06-30 23:34 Fri, 2021-11-05 10:22
The Mansion 449 1 1946-09-26 De Spain Mansion in The Mansion (Location) 690.00 view Sat, 2018-06-30 23:28 Fri, 2021-11-05 10:16
The Mansion 448 1 1946-09-26 De Spain Mansion in The Mansion (Location) 689.00 view Sat, 2018-06-30 23:25 Fri, 2021-11-05 10:15
The Mansion 447 1 1946-10-01 Spot where Mink Snopes Enters Town in The Mansion (Location) 757.00 view Sat, 2018-06-30 23:12 Fri, 2021-11-05 10:03
The Mansion 446 1 1946-10-01 Jefferson Railroad Line in The Mansion (Location) 756.00 view Sat, 2018-06-30 23:03 Fri, 2021-11-05 09:35
The Mansion 445 2 1908-06-03 to 1908-06-24 Jefferson Railroad Station in The Mansion (Location) 123.50 view Sat, 2018-06-30 22:51 Fri, 2021-11-05 09:28
The Mansion 445 1 1946-10-01 Jefferson Railroad Line in The Mansion (Location) 755.00 view Sat, 2018-06-30 22:40 Fri, 2021-11-05 09:19
The Mansion 444 2 1908-09-08 to 1946-09-26 Parchman Penitentiary in The Mansion (Location) 166.00 view Sat, 2018-06-30 22:27 Fri, 2021-11-05 09:29
The Mansion 444 1 1946-10-01 Hurricane Creek|Creek Bottom at Sartoris Place in The Mansion (Location) 754.10 view Sat, 2018-06-30 22:18 Fri, 2021-11-05 09:15
The Mansion 443 3 1946-10-01 Road North from Jefferson in The Mansion (Location) 754.00 view Sat, 2018-06-30 22:11 Fri, 2021-11-05 09:14
The Mansion 443 2 1946-10-01 Road North from Jefferson in The Mansion (Location) 753.00 view Sat, 2018-06-30 21:55 Fri, 2021-11-05 09:12
The Mansion 443 1 1946-10-01 Negro Cabin in The Mansion in The Mansion (Location) 752.00 view Sat, 2018-06-30 21:49 Fri, 2021-11-05 09:10
The Mansion 441 1 1946-09-30 Negro Cabin in The Mansion in The Mansion (Location) 751.00 view Sat, 2018-06-30 21:38 Fri, 2021-11-05 09:09
The Town 389 1 1929-07-20 to 1929-07-31 Judge Stevens'|Gavin Stevens' Office in The Town (Location) 364.00 view Sat, 2018-06-30 10:11 Fri, 2020-05-15 16:36
The Town 388 3 1929-07-20 to 1929-07-31 Dewitt Binford's House in The Town (Location) 361.00 view Sat, 2018-06-30 10:01 Fri, 2020-05-15 11:58
The Town 388 2 1929-07-19 to 1929-07-31 Snopes Children's Camp 2 in The Town (Location) 360.00 view Sat, 2018-06-30 09:57 Tue, 2021-04-06 13:26
The Town 388 1 1929-07-19 to 1929-07-31 Varner's Store in The Town (Location) 359.00 view Sat, 2018-06-30 09:52 Fri, 2020-05-15 11:54
The Town 387 1 1929-07-14 to 1929-07-19 Varner's Store in The Town (Location) 358.00 view Sat, 2018-06-30 09:48 Fri, 2020-05-15 11:50
The Town 386 2 1929-07-19 to 1929-07-31 Judge Stevens'|Gavin Stevens' Office in The Town (Location) 363.00 view Sat, 2018-06-30 09:44 Fri, 2020-05-15 11:45
The Town 386 1 1929-07-19 to 1929-07-31 Dewitt Binford's House in The Town (Location) 357.00 view Sat, 2018-06-30 09:36 Fri, 2020-05-15 11:43
The Town 385 1 1929-07-18 to 1929-07-31 Dewitt Binford's House in The Town (Location) 356.00 view Sat, 2018-06-30 09:24 Fri, 2020-05-15 11:41
The Town 384 3 1929-07-16 to 1929-07-31 Dewitt Binford's House in The Town (Location) 355.00 view Sat, 2018-06-30 09:19 Sun, 2019-01-27 15:16
The Town 384 2 1929-07-14 to 1929-07-31 Dewitt Binford's House in The Town (Location) 354.00 view Sat, 2018-06-30 09:15 Fri, 2020-05-15 11:34
The Town 383 1 1929-07-14 to 1929-07-31 Judge Stevens'|Gavin Stevens' Office in The Town (Location) 353.00 view Sat, 2018-06-30 08:54 Thu, 2020-05-14 17:09
The Town 382 2 1929-07-13 to 1929-07-31 Judge Stevens'|Gavin Stevens' Office in The Town (Location) 352.00 view Fri, 2018-06-29 17:13 Thu, 2020-05-14 17:06
The Town 381 2 1929-07-12 to 1929-07-31 Jefferson Drugstore in The Town (Location) 350.00 view Fri, 2018-06-29 17:00 Tue, 2020-06-09 15:38
The Town 381 1 1929-07-09 to 1929-07-31 Widrington House in The Town (Location) 349.00 view Fri, 2018-06-29 16:53 Thu, 2020-05-14 12:27
The Town 380 1 1929-07-09 to 1929-07-31 Snopes Hotel|Jefferson Hotel in The Town (Location) 348.00 view Fri, 2018-06-29 10:55 Thu, 2020-05-14 12:00
The Town 379 1 1929-07-06 to 1929-07-31 Jefferson Drugstore in The Town (Location) 346.00 view Fri, 2018-06-29 10:49 Thu, 2020-05-14 11:53
The Mansion 460 1 1946-10-04 Judge Stevens'|Gavin Stevens' Office in The Mansion (Location) 774.00 view Fri, 2018-06-29 05:02 Fri, 2021-11-05 13:16
The Mansion 459 2 1946-10-04 Mink Snopes' Farm in The Mansion (Location) 773.00 view Fri, 2018-06-29 04:54 Fri, 2021-11-05 13:13
The Mansion 459 1 1943-01-01 to 1943-12-31 Mink Snopes' Farm in The Mansion (Location) 562.00 view Fri, 2018-06-29 04:50 Fri, 2021-11-05 13:09
The Mansion 458 4 1946-10-04 Mink Snopes' Farm in The Mansion (Location) 772.00 view Fri, 2018-06-29 04:46 Fri, 2021-11-05 13:08
The Mansion 458 3 1946-10-04 Frenchman's Bend in The Mansion (Location) 771.00 view Fri, 2018-06-29 04:33 Fri, 2021-11-05 13:05
The Mansion 458 2 1944-01-01 to 1944-12-31 Varner's Store in The Mansion (Location) 578.10 view Fri, 2018-06-29 04:29 Fri, 2021-11-05 13:04
The Mansion 458 1 1946-10-04 Frenchman's Bend in The Mansion (Location) 770.00 view Fri, 2018-06-29 04:25 Fri, 2021-11-05 13:03
The Mansion 374 4 1946-03-21 to 1946-06-21 McKinley Smith's Farm in The Mansion (Location) 639.00 view Thu, 2018-06-28 23:52 Sat, 2021-11-06 15:19
The Mansion 374 3 1946-01-17 to 1946-03-21 Meadowfill's Place in The Mansion (Location) 637.70 view Thu, 2018-06-28 23:47 Sat, 2021-11-06 15:19
The Mansion 374 2 1946-01-16 to 1946-03-01 McKinley Smith's House in The Mansion (Location) 637.60 view Thu, 2018-06-28 23:43 Sat, 2021-11-06 15:19
The Town 376 2 1927-10-05 to 1927-10-31 Judge Stevens'|Gavin Stevens' Office in The Town (Location) 335.00 view Thu, 2018-06-28 17:37 Wed, 2020-05-13 15:34
The Town 376 1 1927-10-06 to 1927-10-31 Judge Stevens'|Gavin Stevens' Office in The Town (Location) 336.00 view Thu, 2018-06-28 17:32 Wed, 2020-05-13 15:27
The Town 375 1 1927-10-05 to 1927-10-31 Judge Stevens'|Gavin Stevens' Office in The Town (Location) 334.00 view Thu, 2018-06-28 17:30 Wed, 2020-05-13 15:25
The Town 374 1 1927-10-05 to 1927-10-31 Jefferson Cemetery in The Town (Location) 333.00 view Thu, 2018-06-28 17:23 Wed, 2020-05-13 15:20
The Town 371 3 1927-10-05 to 1927-10-31 Jefferson Cemetery in The Town (Location) 332.00 view Thu, 2018-06-28 15:10 Wed, 2021-04-07 12:13
The Town 371 2 1927-10-05 to 1927-10-31 Judge Stevens'|Gavin Stevens' Office in The Town (Location) 331.00 view Thu, 2018-06-28 15:03 Wed, 2020-05-13 12:33
The Town 371 1 1927-10-04 to 1927-10-31 Courthouse and Square in The Town (Location) 330.00 view Thu, 2018-06-28 14:59 Wed, 2020-05-13 12:30
The Town 370 1 1927-10-01 to 1927-10-31 Jefferson Railroad Station in The Town (Location) 328.00 view Thu, 2018-06-28 14:52 Wed, 2020-05-13 12:26
The Town 360 2 1927-04-14 to 1927-04-22 Jefferson Cemetery in The Town (Location) 320.00 view Thu, 2018-06-28 11:50 Tue, 2020-05-12 16:45
The Town 359 1 1927-04-13 to 1927-04-21 Stevens-Mallison House in The Town (Location) 318.00 view Thu, 2018-06-28 11:45 Tue, 2020-05-12 16:37
The Town 357 3 1930-01-01 to 1932-12-31 Stevens-Mallison House in The Town (Location) 425.00 view Thu, 2018-06-28 11:38 Tue, 2020-05-12 16:26
The Town 357 2 1927-04-13 to 1927-04-21 Stevens-Mallison House in The Town (Location) 316.00 view Thu, 2018-06-28 11:33 Tue, 2020-05-12 16:20
The Town 357 1 1927-04-13 to 1927-04-21 Courthouse and Square in The Town (Location) 315.00 view Thu, 2018-06-28 11:29 Tue, 2020-05-12 16:18
The Town 355 1 1927-04-14 to 1927-04-21 Jefferson Cemetery in The Town (Location) 321.00 view Thu, 2018-06-28 11:07 Tue, 2020-05-12 16:07
The Town 354 2 1930-01-01 to 1932-12-31 Stevens-Mallison House in The Town (Location) 423.00 view Thu, 2018-06-28 11:04 Mon, 2020-05-11 17:35
The Town 354 1 1927-04-13 to 1927-04-21 Sartoris Bank|Merchants' and Farmers' Bank in The Town (Location) 314.00 view Thu, 2018-06-28 10:59 Mon, 2020-05-11 17:27
The Town 353 1 1930-01-01 to 1932-12-31 Stevens-Mallison House in The Town (Location) 422.00 view Thu, 2018-06-28 10:51 Mon, 2020-05-11 17:17
The Town 352 1 1930-01-01 to 1932-12-31 Stevens-Mallison House in The Town (Location) 421.00 view Thu, 2018-06-28 10:31 Mon, 2020-05-11 16:28
The Mansion 373 2 1946-01-14 to 1946-02-02 Eula Acres in The Mansion (Location) 637.40 view Wed, 2018-06-27 21:26 Sat, 2021-11-06 15:18
The Mansion 373 1 1946-01-13 to 1946-01-31 Meadowfill's Place in The Mansion (Location) 637.30 view Wed, 2018-06-27 21:20 Sat, 2021-11-06 15:13
The Mansion 372 2 1946-01-13 to 1946-06-21 Meadowfill's Place in The Mansion (Location) 637.20 view Wed, 2018-06-27 21:10 Sat, 2021-11-06 15:13
The Mansion 372 1 1946-01-13 to 1946-06-21 Jefferson Railroad Station in The Mansion (Location) 637.10 view Wed, 2018-06-27 21:06 Sat, 2021-11-06 15:13
The Mansion 371 4 1946-01-12 to 1946-06-21 Meadowfill's Place in The Mansion (Location) 637.00 view Wed, 2018-06-27 20:33 Sat, 2021-11-06 15:11
The Mansion 371 3 1946-01-11 to 1946-06-21 Meadowfill's Place in The Mansion (Location) 635.00 view Wed, 2018-06-27 20:27 Sat, 2021-11-06 15:12
The Mansion 371 2 1946-01-10 to 1946-06-21 Meadowfill's Place in The Mansion (Location) 633.00 view Wed, 2018-06-27 20:17 Sat, 2021-11-06 15:11
The Mansion 371 1 1946-01-09 to 1946-06-21 Meadowfill's Place in The Mansion (Location) 632.00 view Wed, 2018-06-27 20:12 Sat, 2021-11-06 15:11
The Mansion 370 3 1946-01-08 to 1946-06-21 Meadowfill's Place in The Mansion (Location) 631.00 view Wed, 2018-06-27 20:03 Sat, 2021-11-06 15:10
The Mansion 370 2 1946-01-07 to 1946-06-21 Meadowfill's Place in The Mansion (Location) 630.00 view Wed, 2018-06-27 19:47 Wed, 2021-11-03 11:03
The Mansion 370 1 1946-01-07 to 1946-06-21 Meadowfill's Place in The Mansion (Location) 629.00 view Wed, 2018-06-27 19:37 Wed, 2018-06-27 19:37
The Town 350 1 1927-04-12 to 1927-04-20 Flem Snopes' Bungalow in The Town (Location) 311.00 view Wed, 2018-06-27 14:42 Mon, 2020-05-11 16:20
The Town 349 1 1927-04-12 to 1927-04-20 Courthouse and Square in The Town (Location) 310.00 view Wed, 2018-06-27 14:37 Mon, 2020-05-11 16:16
The Town 345 2 1927-04-12 to 1927-04-20 Judge Stevens'|Gavin Stevens' Office in The Town (Location) 309.00 view Wed, 2018-06-27 14:32 Thu, 2020-05-07 17:22
The Town 345 1 1910-01-01 to 1927-04-11 Varner's House in The Town (Location) 38.00 view Wed, 2018-06-27 14:25 Thu, 2020-05-07 17:02
The Town 344 2 1927-04-12 to 1927-04-20 Flem Snopes' Bungalow in The Town (Location) 293.40 view Wed, 2018-06-27 14:20 Thu, 2020-05-07 16:59
The Town 344 1 1909-01-01 to 1927-04-20 Varner's Store in The Town (Location) 21.00 view Wed, 2018-06-27 14:14 Thu, 2020-05-07 16:55
The Town 343 2 1927-04-12 to 1927-04-20 Flem Snopes' Bungalow in The Town (Location) 293.30 view Wed, 2018-06-27 14:05 Thu, 2020-05-07 16:52
The Town 343 1 1927-01-01 to 1927-02-28 Oxford, Mississippi in The Town (Location) 274.00 view Wed, 2018-06-27 13:58 Thu, 2020-05-07 16:46
The Town 342 2 1927-04-12 to 1927-04-20 Judge Stevens'|Gavin Stevens' Office in The Town (Location) 294.50 view Wed, 2018-06-27 11:51 Thu, 2020-05-07 16:46
The Town 342 1 1927-04-12 to 1927-04-20 Flem Snopes' Bungalow in The Town (Location) 293.20 view Wed, 2018-06-27 11:47 Thu, 2020-05-07 16:06
The Town 341 2 1927-04-12 to 1927-04-20 Judge Stevens'|Gavin Stevens' Office in The Town (Location) 308.00 view Wed, 2018-06-27 11:41 Thu, 2020-05-07 16:00
The Town 341 1 1926-10-01 to 1926-10-31 Flem Snopes' Bungalow in The Town (Location) 253.00 view Wed, 2018-06-27 11:37 Thu, 2020-05-07 14:21
The Town 340 4 1926-06-01 to 1926-08-31 Flem Snopes' Bungalow in The Town (Location) 248.00 view Wed, 2018-06-27 11:32 Wed, 2020-05-06 12:19
The Town 340 3 1925-09-01 to 1926-02-28 Flem Snopes' Bungalow in The Town (Location) 247.00 view Wed, 2018-06-27 11:29 Wed, 2020-05-06 12:15
The Town 340 2 1927-04-12 to 1927-04-20 Judge Stevens'|Gavin Stevens' Office in The Town (Location) 307.00 view Wed, 2018-06-27 11:26 Wed, 2020-05-06 12:13
The Town 340 1 1925-09-01 to 1925-11-30 Flem Snopes' Bungalow in The Town (Location) 246.00 view Wed, 2018-06-27 11:24 Wed, 2020-05-06 12:12
The Town 339 1 1927-04-12 to 1927-04-20 Judge Stevens'|Gavin Stevens' Office in The Town (Location) 306.00 view Wed, 2018-06-27 11:16 Wed, 2020-05-06 12:06

Pages

Subscribe to Events